Voltar ao catálogo

STARLINK-11498

AtivoComunicaçõesVLEO
NORAD 62276·PAYLOAD·🇺🇸 United States

Lançado Dec 8, 2024 de Cape Canaveral Space Force Station

Loading…

Próximas Passagens (próximas 24 horas)

TLE

AtualizadoSource: CelesTrak SupGP

Época: Sep 14, 2026, 21:08 UTC

1 62276C 24237K   26257.88104167  .00018553  00000+0  14398-3 0  2574
2 62276  43.0007 356.1873 0001626 287.6807 214.5792 15.70849978    14

Acompanhe STARLINK-11498 em tempo real com AllMySat

Download on the App Store